KUIPER-00156

Last updated on Mon Oct 20 2025 00:02:06 GMT+0000 (Coordinated Universal Time)

1 65775U 25217P 25292.30886553 .00050348 00000+0 13702-2 0 9999 2 65775 51.8738 327.4455 0002557 114.5103 245.6150 15.37020085 3678
UTC large
Height (km)
Speed (km/s)
/
Latitude / Longitude
Inclination (degrees)
Orbital Period (minutes)
Azimuth
Elevation
Range (km)
Doppler Factor

Next 0 passes for location: London (51.5072 / 0.1276)

Sorry there are no passes over London.